AAL4296 KMIA-KIAH

Flight info

Callsign AAL4296
Flight time N/A
Altitude 36000
Route GLADZ4 BAGGS REMIS Y280 LEV NNCEE2
Aircraft B738/M-SDE2E3FGHIRWXY/LB1

Departure

Time 2026-05-07 19:40
Airport Miami International Airport (KMIA)

Arrival

Time N/A
Airport George Bush Intercontinental Airport (KIAH)
Time Latitude Longitude Altitude Speed Heading
2026-05-07 19:12 25.79732 -80.28351 16 ft 0 kts 357°
2026-05-07 19:27 25.79714 -80.28350 18 ft 4 kts 350°
2026-05-07 19:28 25.79688 -80.28342 18 ft 4 kts 336°
2026-05-07 19:28 25.79665 -80.28327 19 ft 4 kts 321°
2026-05-07 19:28 25.79646 -80.28306 21 ft 4 kts 303°
2026-05-07 19:28 25.79635 -80.28280 20 ft 4 kts 276°
2026-05-07 19:29 25.79634 -80.28270 20 ft 1 kts 266°
2026-05-07 19:32 25.79633 -80.28291 19 ft 8 kts 266°
2026-05-07 19:33 25.79629 -80.28372 18 ft 13 kts 268°
2026-05-07 19:33 25.79624 -80.28496 18 ft 18 kts 263°
2026-05-07 19:33 25.79594 -80.28634 19 ft 18 kts 256°
2026-05-07 19:33 25.79569 -80.28769 19 ft 18 kts 281°
2026-05-07 19:34 25.79674 -80.28810 19 ft 17 kts 357°
2026-05-07 19:34 25.79795 -80.28816 19 ft 18 kts 358°
2026-05-07 19:34 25.79924 -80.28822 21 ft 19 kts 358°
2026-05-07 19:34 25.80014 -80.28893 20 ft 18 kts 266°
2026-05-07 19:35 25.80006 -80.29034 21 ft 18 kts 267°
2026-05-07 19:35 25.80000 -80.29182 21 ft 20 kts 267°
2026-05-07 19:35 25.79993 -80.29352 17 ft 25 kts 268°
2026-05-07 19:35 25.79987 -80.29517 12 ft 17 kts 267°
2026-05-07 19:36 25.79982 -80.29632 13 ft 14 kts 267°
2026-05-07 19:36 25.79978 -80.29728 15 ft 8 kts 268°
2026-05-07 19:36 25.79975 -80.29788 12 ft 8 kts 266°
2026-05-07 19:36 25.79972 -80.29852 11 ft 11 kts 267°
2026-05-07 19:37 25.79969 -80.29939 10 ft 8 kts 268°
2026-05-07 19:37 25.79966 -80.30002 11 ft 8 kts 268°
2026-05-07 19:37 25.79972 -80.30062 12 ft 9 kts 290°
2026-05-07 19:37 25.80015 -80.30124 14 ft 13 kts 333°
2026-05-07 19:38 25.80059 -80.30122 15 ft 4 kts 32°
2026-05-07 19:38 25.80073 -80.30079 13 ft 8 kts 86°
2026-05-07 19:38 25.80074 -80.30063 12 ft 0 kts 87°
2026-05-07 19:39 25.80075 -80.30032 12 ft 22 kts 87°
2026-05-07 19:39 25.80084 -80.29802 12 ft 65 kts 87°
2026-05-07 19:40 25.80128 -80.28776 20 ft 132 kts 88°
2026-05-07 19:40 25.80167 -80.27629 152 ft 158 kts 89°
2026-05-07 19:40 25.80272 -80.26403 673 ft 164 kts 88°
2026-05-07 19:40 25.80377 -80.25099 1081 ft 173 kts 90°
2026-05-07 19:41 25.80430 -80.23780 1651 ft 170 kts 90°
2026-05-07 19:41 25.80466 -80.22426 2063 ft 184 kts 90°
2026-05-07 19:41 25.80518 -80.20914 2349 ft 206 kts 89°
2026-05-07 19:41 25.80577 -80.19281 2736 ft 220 kts 88°
2026-05-07 19:42 25.80743 -80.17541 3029 ft 233 kts 70°
2026-05-07 19:42 25.81750 -80.16107 3301 ft 243 kts 30°
2026-05-07 19:42 25.83368 -80.15654 3643 ft 249 kts 357°
2026-05-07 19:42 25.85168 -80.15768 4010 ft 264 kts 355°
2026-05-07 19:43 25.87016 -80.15814 4677 ft 267 kts 359°
2026-05-07 19:43 25.88884 -80.15772 5316 ft 270 kts 360°
2026-05-07 19:43 25.90749 -80.16061 5880 ft 275 kts 340°
2026-05-07 19:43 25.92555 -80.16813 6479 ft 279 kts 338°
2026-05-07 19:44 25.94405 -80.17503 7109 ft 282 kts 342°
2026-05-07 19:44 25.96299 -80.18162 7675 ft 287 kts 340°
2026-05-07 19:44 25.98020 -80.19272 8269 ft 290 kts 315°
2026-05-07 19:44 25.99073 -80.21173 8863 ft 292 kts 284°
2026-05-07 19:45 25.99315 -80.22621 9513 ft 284 kts 278°
2026-05-07 19:45 25.99563 -80.24819 10113 ft 293 kts 276°
2026-05-07 19:45 25.99768 -80.27086 10669 ft 298 kts 275°
2026-05-07 19:45 25.99851 -80.29469 10854 ft 319 kts 270°
2026-05-07 19:46 25.99823 -80.32014 11010 ft 339 kts 270°
2026-05-07 19:46 26.00168 -80.34668 11131 ft 358 kts 288°
2026-05-07 19:46 26.01232 -80.37233 11432 ft 368 kts 298°
2026-05-07 19:46 26.02438 -80.39729 11988 ft 371 kts 298°
2026-05-07 19:47 26.03671 -80.42247 12620 ft 371 kts 298°
2026-05-07 19:47 26.04905 -80.44786 13188 ft 374 kts 298°
2026-05-07 19:47 26.06141 -80.47359 13765 ft 378 kts 298°
2026-05-07 19:47 26.07372 -80.49951 14330 ft 379 kts 298°
2026-05-07 19:48 26.08597 -80.52555 14926 ft 380 kts 298°
2026-05-07 19:48 26.09820 -80.55169 15542 ft 381 kts 297°
2026-05-07 19:48 26.11043 -80.57793 16111 ft 383 kts 297°
2026-05-07 19:48 26.12270 -80.60434 16668 ft 385 kts 297°
2026-05-07 19:49 26.13504 -80.63091 17227 ft 387 kts 297°
2026-05-07 19:49 26.14747 -80.65774 17774 ft 390 kts 297°
2026-05-07 19:49 26.15993 -80.68463 18307 ft 392 kts 297°
2026-05-07 19:49 26.17244 -80.71166 18777 ft 394 kts 297°
2026-05-07 19:50 26.18488 -80.73854 19235 ft 396 kts 297°
2026-05-07 19:50 26.19751 -80.76586 19696 ft 398 kts 297°
2026-05-07 19:50 26.21021 -80.79334 20143 ft 400 kts 297°
2026-05-07 19:50 26.22297 -80.82097 20592 ft 402 kts 296°
2026-05-07 19:51 26.23576 -80.84869 21030 ft 404 kts 296°
2026-05-07 19:51 26.24864 -80.87661 21472 ft 406 kts 296°
2026-05-07 19:51 26.26156 -80.90465 21889 ft 407 kts 296°
2026-05-07 19:51 26.27450 -80.93275 22310 ft 409 kts 296°
2026-05-07 19:52 26.28737 -80.96069 22764 ft 409 kts 296°
2026-05-07 19:52 26.30038 -80.98896 23207 ft 410 kts 296°
2026-05-07 19:52 26.31344 -81.01738 23572 ft 413 kts 295°
2026-05-07 19:52 26.32658 -81.04599 23866 ft 415 kts 295°
2026-05-07 19:53 26.33978 -81.07472 24181 ft 417 kts 295°
2026-05-07 19:53 26.35299 -81.10353 24493 ft 418 kts 295°
2026-05-07 19:53 26.36624 -81.13242 24800 ft 419 kts 295°
2026-05-07 19:53 26.37955 -81.16146 25105 ft 421 kts 295°
2026-05-07 19:54 26.39290 -81.19060 25389 ft 423 kts 295°
2026-05-07 19:54 26.40626 -81.21981 25679 ft 424 kts 295°
2026-05-07 19:54 26.41971 -81.24921 25966 ft 426 kts 295°
2026-05-07 19:54 26.43319 -81.27870 26243 ft 427 kts 295°
2026-05-07 19:55 26.44651 -81.30786 26511 ft 428 kts 295°
2026-05-07 19:55 26.46004 -81.33752 26783 ft 430 kts 295°
2026-05-07 19:55 26.47365 -81.36735 27058 ft 431 kts 295°
2026-05-07 19:55 26.48727 -81.39724 27307 ft 433 kts 295°
2026-05-07 19:56 26.50094 -81.42726 27555 ft 434 kts 295°
2026-05-07 19:56 26.51466 -81.45741 27801 ft 436 kts 295°
2026-05-07 19:56 26.52842 -81.48766 28045 ft 437 kts 295°
2026-05-07 19:56 26.54222 -81.51802 28298 ft 438 kts 295°
2026-05-07 19:57 26.55605 -81.54848 28540 ft 440 kts 295°
2026-05-07 19:57 26.56992 -81.57902 28758 ft 441 kts 295°
2026-05-07 19:57 26.58380 -81.60963 28980 ft 443 kts 295°
2026-05-07 19:57 26.59770 -81.64030 29278 ft 442 kts 295°
2026-05-07 19:58 26.61155 -81.67089 29656 ft 440 kts 295°
2026-05-07 19:58 26.62514 -81.70089 30054 ft 438 kts 295°
2026-05-07 19:58 26.63884 -81.73119 30415 ft 435 kts 295°
2026-05-07 19:58 26.65244 -81.76128 30804 ft 432 kts 295°
2026-05-07 19:59 26.66596 -81.79122 31103 ft 431 kts 295°
2026-05-07 19:59 26.67949 -81.82120 31350 ft 431 kts 295°
2026-05-07 19:59 26.69300 -81.85116 31628 ft 431 kts 295°
2026-05-07 19:59 26.70649 -81.88110 31955 ft 429 kts 295°
2026-05-07 20:00 26.71983 -81.91071 32304 ft 428 kts 295°
2026-05-07 20:00 26.73325 -81.94053 32614 ft 427 kts 295°
2026-05-07 20:00 26.74642 -81.96983 32908 ft 426 kts 295°
2026-05-07 20:00 26.75974 -81.99948 33214 ft 426 kts 295°
2026-05-07 20:01 26.77300 -82.02900 33539 ft 424 kts 295°
2026-05-07 20:01 26.78626 -82.05855 33818 ft 424 kts 295°
2026-05-07 20:01 26.79947 -82.08801 34105 ft 423 kts 295°
2026-05-07 20:01 26.81268 -82.11750 34363 ft 423 kts 295°
2026-05-07 20:02 26.82586 -82.14693 34590 ft 422 kts 295°
2026-05-07 20:02 26.83903 -82.17635 34828 ft 422 kts 295°
2026-05-07 20:02 26.85217 -82.20573 35075 ft 421 kts 295°
2026-05-07 20:02 26.86525 -82.23500 35335 ft 420 kts 295°
2026-05-07 20:03 26.87833 -82.26429 35568 ft 420 kts 295°
2026-05-07 20:03 26.89140 -82.29357 35796 ft 420 kts 295°
2026-05-07 20:03 26.90442 -82.32277 36013 ft 420 kts 295°
2026-05-07 20:03 26.91733 -82.35175 36034 ft 423 kts 295°
2026-05-07 20:04 26.94356 -82.41067 36037 ft 420 kts 295°
2026-05-07 20:04 26.96953 -82.46907 36044 ft 417 kts 295°
2026-05-07 20:05 26.99527 -82.52707 36065 ft 414 kts 295°
2026-05-07 20:05 27.02087 -82.58481 36061 ft 412 kts 295°
2026-05-07 20:06 27.04634 -82.64234 36069 ft 411 kts 295°
2026-05-07 20:06 27.07157 -82.69942 36069 ft 411 kts 295°
2026-05-07 20:07 27.09703 -82.75709 36059 ft 413 kts 295°
2026-05-07 20:07 27.12254 -82.81493 36065 ft 414 kts 294°
2026-05-07 20:08 27.14582 -82.87426 36058 ft 415 kts 289°
2026-05-07 20:08 27.16517 -82.93549 36055 ft 416 kts 288°
2026-05-07 20:09 27.18433 -82.99707 36054 ft 418 kts 288°
2026-05-07 20:10 27.21343 -83.08916 36041 ft 419 kts 288°
2026-05-07 20:10 27.23307 -83.15085 36042 ft 419 kts 288°
2026-05-07 20:11 27.25266 -83.21242 36040 ft 418 kts 288°
2026-05-07 20:11 27.27216 -83.27384 36039 ft 417 kts 288°
2026-05-07 20:12 27.29149 -83.33483 36038 ft 415 kts 288°
2026-05-07 20:12 27.31085 -83.39602 36042 ft 414 kts 288°
2026-05-07 20:13 27.33013 -83.45705 36053 ft 413 kts 288°
2026-05-07 20:13 27.34921 -83.51756 36042 ft 412 kts 288°
2026-05-07 20:14 27.36834 -83.57834 36038 ft 411 kts 288°
2026-05-07 20:14 27.38737 -83.63890 36040 ft 410 kts 288°
2026-05-07 20:15 27.40634 -83.69937 36043 ft 409 kts 288°
2026-05-07 20:15 27.42528 -83.75985 36042 ft 409 kts 288°
2026-05-07 20:16 27.44407 -83.81998 36042 ft 409 kts 288°
2026-05-07 20:16 27.46297 -83.88055 36034 ft 410 kts 288°
2026-05-07 20:17 27.48186 -83.94117 36036 ft 410 kts 288°
2026-05-07 20:17 27.50077 -84.00199 36041 ft 411 kts 288°
2026-05-07 20:18 27.51965 -84.06280 36035 ft 412 kts 288°
2026-05-07 20:18 27.53853 -84.12373 36038 ft 412 kts 287°
2026-05-07 20:19 27.55728 -84.18433 36034 ft 412 kts 287°
2026-05-07 20:19 27.57615 -84.24543 36039 ft 413 kts 287°
2026-05-07 20:20 27.59501 -84.30662 36034 ft 413 kts 287°
2026-05-07 20:20 27.61384 -84.36780 36030 ft 413 kts 287°
2026-05-07 20:21 27.63266 -84.42905 36036 ft 413 kts 287°
2026-05-07 20:21 27.65144 -84.49030 36028 ft 413 kts 287°
2026-05-07 20:22 27.67017 -84.55152 36035 ft 412 kts 287°
2026-05-07 20:22 27.68874 -84.61229 36036 ft 412 kts 287°
2026-05-07 20:23 27.70739 -84.67343 36041 ft 412 kts 287°
2026-05-07 20:23 27.72601 -84.73457 36030 ft 411 kts 287°
2026-05-07 20:24 27.74448 -84.79534 36033 ft 411 kts 287°
2026-05-07 20:24 27.76298 -84.85633 36033 ft 411 kts 287°
2026-05-07 20:25 27.78148 -84.91741 36035 ft 410 kts 287°
2026-05-07 20:25 27.79993 -84.97846 36026 ft 410 kts 287°
2026-05-07 20:26 27.81834 -85.03946 36033 ft 410 kts 287°
2026-05-07 20:26 27.83659 -85.10004 36023 ft 410 kts 287°
2026-05-07 20:27 27.85495 -85.16111 36030 ft 410 kts 286°
2026-05-07 20:27 27.87326 -85.22211 36025 ft 410 kts 286°
2026-05-07 20:28 27.89159 -85.28313 36019 ft 410 kts 287°
2026-05-07 20:28 27.91014 -85.34419 36025 ft 410 kts 287°
2026-05-07 20:29 27.92872 -85.40528 36027 ft 410 kts 287°
2026-05-07 20:29 27.94712 -85.46599 36026 ft 410 kts 286°
2026-05-07 20:30 27.96561 -85.52718 36026 ft 410 kts 286°
2026-05-07 20:30 27.98405 -85.58832 36031 ft 410 kts 286°
2026-05-07 20:31 28.00243 -85.64936 36039 ft 410 kts 286°
2026-05-07 20:31 28.02072 -85.71019 36024 ft 410 kts 286°
2026-05-07 20:32 28.03907 -85.77135 36021 ft 409 kts 286°
2026-05-07 20:32 28.05734 -85.83236 36022 ft 408 kts 286°
2026-05-07 20:33 28.07556 -85.89334 36018 ft 408 kts 285°
2026-05-07 20:33 28.09359 -85.95375 36018 ft 407 kts 285°
2026-05-07 20:34 28.11167 -86.01448 36019 ft 406 kts 285°
2026-05-07 20:34 28.12666 -86.06488 36019 ft 406 kts 285°
2026-05-07 20:35 28.14468 -86.12558 36017 ft 406 kts 285°
2026-05-07 20:35 28.16266 -86.18629 36015 ft 406 kts 285°
2026-05-07 20:36 28.18064 -86.24708 36016 ft 406 kts 285°
2026-05-07 20:36 28.19849 -86.30753 36017 ft 407 kts 285°
2026-05-07 20:37 28.21643 -86.36843 36018 ft 407 kts 285°
2026-05-07 20:37 28.23437 -86.42942 36017 ft 408 kts 285°
2026-05-07 20:38 28.25231 -86.49054 36014 ft 408 kts 285°
2026-05-07 20:38 28.27024 -86.55174 36013 ft 409 kts 285°
2026-05-07 20:39 28.28808 -86.61272 36012 ft 409 kts 285°
2026-05-07 20:39 28.30598 -86.67402 36012 ft 409 kts 285°
2026-05-07 20:40 28.32390 -86.73540 36010 ft 409 kts 285°
2026-05-07 20:40 28.34173 -86.79624 36018 ft 409 kts 285°
2026-05-07 20:41 28.35965 -86.85742 36009 ft 408 kts 285°
2026-05-07 20:41 28.37749 -86.91851 36009 ft 406 kts 285°
2026-05-07 20:42 28.39524 -86.97945 36012 ft 405 kts 285°
2026-05-07 20:42 28.41289 -87.04014 36010 ft 404 kts 284°
2026-05-07 20:43 28.43037 -87.10037 36011 ft 403 kts 284°
2026-05-07 20:43 28.44789 -87.16085 36010 ft 402 kts 284°
2026-05-07 20:44 28.46536 -87.22124 36011 ft 402 kts 284°
2026-05-07 20:44 28.48278 -87.28161 36011 ft 402 kts 284°
2026-05-07 20:45 28.50017 -87.34198 36010 ft 402 kts 284°
2026-05-07 20:45 28.51746 -87.40211 36012 ft 402 kts 284°
2026-05-07 20:46 28.53480 -87.46254 36012 ft 403 kts 284°
2026-05-07 20:46 28.55220 -87.52327 36008 ft 404 kts 284°
2026-05-07 20:47 28.56959 -87.58409 36007 ft 404 kts 284°
2026-05-07 20:47 28.58697 -87.64498 36008 ft 405 kts 284°
2026-05-07 20:48 28.60436 -87.70601 36007 ft 405 kts 284°
2026-05-07 20:48 28.62161 -87.76669 36006 ft 405 kts 284°
2026-05-07 20:49 28.63893 -87.82774 36006 ft 405 kts 284°
2026-05-07 20:49 28.65623 -87.88878 36011 ft 405 kts 284°
2026-05-07 20:50 28.67345 -87.94971 36004 ft 404 kts 284°
2026-05-07 20:50 28.69060 -88.01052 36000 ft 402 kts 284°
2026-05-07 20:51 28.70767 -88.07110 36001 ft 401 kts 284°
2026-05-07 20:51 28.72462 -88.13145 36001 ft 400 kts 283°
2026-05-07 20:52 28.74139 -88.19138 36001 ft 399 kts 283°
2026-05-07 20:52 28.75821 -88.25161 36000 ft 398 kts 283°
2026-05-07 20:53 28.77500 -88.31185 35998 ft 398 kts 283°
2026-05-07 20:53 28.79166 -88.37171 35998 ft 399 kts 283°
2026-05-07 20:54 28.80840 -88.43199 35995 ft 399 kts 283°
2026-05-07 20:54 28.82515 -88.49240 35993 ft 400 kts 283°
2026-05-07 20:55 28.84191 -88.55299 35995 ft 401 kts 283°
2026-05-07 20:55 28.85867 -88.61366 35996 ft 401 kts 283°
2026-05-07 20:56 28.87543 -88.67445 35995 ft 402 kts 283°
2026-05-07 20:56 28.89090 -88.73574 35995 ft 401 kts 280°
2026-05-07 20:57 28.90395 -88.79754 35991 ft 401 kts 279°
2026-05-07 20:57 28.91674 -88.85912 35999 ft 401 kts 279°
2026-05-07 20:58 28.92974 -88.92104 35993 ft 401 kts 279°
2026-05-07 20:58 28.94284 -88.98301 35991 ft 400 kts 279°
2026-05-07 20:59 28.95590 -89.04477 36014 ft 400 kts 279°
2026-05-07 20:59 28.96892 -89.10646 35997 ft 399 kts 279°
2026-05-07 21:00 28.98185 -89.16792 35989 ft 398 kts 279°
2026-05-07 21:00 28.99468 -89.22899 35994 ft 397 kts 279°
2026-05-07 21:01 29.00752 -89.29030 35994 ft 396 kts 279°
2026-05-07 21:01 29.02032 -89.35157 35988 ft 396 kts 279°
2026-05-07 21:02 29.03306 -89.41270 35992 ft 395 kts 279°
2026-05-07 21:02 29.04578 -89.47385 35993 ft 395 kts 279°
2026-05-07 21:03 29.05837 -89.53455 35992 ft 395 kts 279°
2026-05-07 21:03 29.07101 -89.59566 35992 ft 395 kts 279°
2026-05-07 21:04 29.08363 -89.65679 35992 ft 395 kts 279°
2026-05-07 21:04 29.09626 -89.71813 35993 ft 396 kts 279°
2026-05-07 21:05 29.10886 -89.77950 35991 ft 396 kts 279°
2026-05-07 21:05 29.12147 -89.84104 35989 ft 397 kts 278°
2026-05-07 21:06 29.13397 -89.90219 35990 ft 397 kts 278°
2026-05-07 21:06 29.14652 -89.96374 35992 ft 397 kts 278°
2026-05-07 21:07 29.15908 -90.02547 35992 ft 398 kts 278°
2026-05-07 21:07 29.17157 -90.08697 35981 ft 393 kts 278°
2026-05-07 21:08 29.18170 -90.14755 35994 ft 384 kts 274°
2026-05-07 21:08 29.18901 -90.20762 36000 ft 382 kts 274°
2026-05-07 21:09 29.19626 -90.26786 36000 ft 382 kts 274°
2026-05-07 21:09 29.20373 -90.32804 36000 ft 382 kts 274°
2026-05-07 21:10 29.21131 -90.38814 36004 ft 382 kts 274°
2026-05-07 21:10 29.21893 -90.44844 36002 ft 383 kts 274°
2026-05-07 21:11 29.22655 -90.50896 35999 ft 384 kts 274°
2026-05-07 21:11 29.23794 -90.59978 35995 ft 387 kts 274°
2026-05-07 21:12 29.24557 -90.66088 35996 ft 388 kts 274°
2026-05-07 21:12 29.25318 -90.72215 36002 ft 388 kts 274°
2026-05-07 21:13 29.26078 -90.78339 36015 ft 387 kts 274°
2026-05-07 21:13 29.26829 -90.84429 35999 ft 385 kts 274°
2026-05-07 21:14 29.27574 -90.90483 35994 ft 383 kts 274°
2026-05-07 21:14 29.28312 -90.96508 36003 ft 380 kts 274°
2026-05-07 21:15 29.29035 -91.02443 35998 ft 378 kts 274°
2026-05-07 21:15 29.29759 -91.08400 36005 ft 376 kts 274°
2026-05-07 21:16 29.30478 -91.14338 36005 ft 376 kts 274°
2026-05-07 21:16 29.31193 -91.20269 36007 ft 376 kts 274°
2026-05-07 21:17 29.31904 -91.26190 36010 ft 376 kts 274°
2026-05-07 21:17 29.32615 -91.32147 36009 ft 378 kts 274°
2026-05-07 21:18 29.33321 -91.38079 36007 ft 379 kts 274°
2026-05-07 21:18 29.34031 -91.44077 36009 ft 380 kts 274°
2026-05-07 21:19 29.34742 -91.50100 36010 ft 381 kts 274°
2026-05-07 21:19 29.35452 -91.56130 36020 ft 382 kts 274°
2026-05-07 21:20 29.36161 -91.62183 36016 ft 383 kts 274°
2026-05-07 21:20 29.36866 -91.68226 36013 ft 383 kts 274°
2026-05-07 21:21 29.37570 -91.74279 36011 ft 383 kts 274°
2026-05-07 21:21 29.38265 -91.80282 36013 ft 382 kts 274°
2026-05-07 21:22 29.38959 -91.86301 36009 ft 380 kts 274°
2026-05-07 21:22 29.39647 -91.92299 36014 ft 379 kts 274°
2026-05-07 21:23 29.40332 -91.98285 36008 ft 378 kts 274°
2026-05-07 21:23 29.40898 -92.03251 36010 ft 377 kts 274°
2026-05-07 21:24 29.41572 -92.09197 36008 ft 376 kts 274°
2026-05-07 21:24 29.42245 -92.15147 36008 ft 375 kts 274°
2026-05-07 21:25 29.42913 -92.21087 36011 ft 375 kts 274°
2026-05-07 21:25 29.43574 -92.26978 36013 ft 375 kts 274°
2026-05-07 21:26 29.44236 -92.32911 36013 ft 375 kts 273°
2026-05-07 21:26 29.44898 -92.38855 36010 ft 375 kts 273°
2026-05-07 21:27 29.45557 -92.44802 36007 ft 375 kts 273°
2026-05-07 21:27 29.45984 -92.50749 36012 ft 374 kts 270°
2026-05-07 21:28 29.46223 -92.56677 36010 ft 374 kts 269°
2026-05-07 21:28 29.46470 -92.62641 36011 ft 374 kts 270°
2026-05-07 21:29 29.46737 -92.68621 36024 ft 375 kts 270°
2026-05-07 21:29 29.47010 -92.74594 36016 ft 375 kts 270°
2026-05-07 21:30 29.47282 -92.80590 36013 ft 375 kts 270°
2026-05-07 21:30 29.47552 -92.86578 36018 ft 375 kts 270°
2026-05-07 21:31 29.47817 -92.92524 36016 ft 375 kts 270°
2026-05-07 21:31 29.48080 -92.98508 36008 ft 375 kts 270°
2026-05-07 21:32 29.48342 -93.04496 36015 ft 375 kts 270°
2026-05-07 21:32 29.48597 -93.10478 36008 ft 375 kts 269°
2026-05-07 21:33 29.48837 -93.16458 36014 ft 375 kts 269°
2026-05-07 21:33 29.49073 -93.22430 36006 ft 374 kts 269°
2026-05-07 21:34 29.49307 -93.28401 36016 ft 374 kts 269°
2026-05-07 21:34 29.49537 -93.34323 35970 ft 374 kts 269°
2026-05-07 21:35 29.49652 -93.37336 35518 ft 378 kts 269°
2026-05-07 21:35 29.49768 -93.40358 34891 ft 378 kts 269°
2026-05-07 21:35 29.49884 -93.43375 34306 ft 379 kts 269°
2026-05-07 21:35 29.49998 -93.46405 33601 ft 381 kts 268°
2026-05-07 21:36 29.50113 -93.49451 32910 ft 382 kts 269°
2026-05-07 21:36 29.50227 -93.52508 32220 ft 383 kts 269°
2026-05-07 21:36 29.50341 -93.55563 31556 ft 384 kts 269°
2026-05-07 21:36 29.50454 -93.58595 31085 ft 379 kts 269°
2026-05-07 21:37 29.50566 -93.61608 30589 ft 376 kts 269°
2026-05-07 21:37 29.50674 -93.64563 30107 ft 373 kts 269°
2026-05-07 21:37 29.50784 -93.67564 29534 ft 371 kts 269°
2026-05-07 21:37 29.50889 -93.70475 29007 ft 367 kts 269°
2026-05-07 21:38 29.50994 -93.73389 28499 ft 364 kts 269°
2026-05-07 21:38 29.51097 -93.76276 28005 ft 361 kts 269°
2026-05-07 21:38 29.51198 -93.79142 27506 ft 358 kts 269°
2026-05-07 21:38 29.51298 -93.81987 27036 ft 354 kts 269°
2026-05-07 21:39 29.51397 -93.84815 26565 ft 355 kts 269°
2026-05-07 21:39 29.51495 -93.87675 26088 ft 360 kts 269°
2026-05-07 21:39 29.51595 -93.90541 25596 ft 358 kts 269°
2026-05-07 21:39 29.51693 -93.93390 25100 ft 355 kts 269°
2026-05-07 21:40 29.51789 -93.96186 24611 ft 353 kts 269°
2026-05-07 21:40 29.51887 -93.99005 24104 ft 352 kts 269°
2026-05-07 21:40 29.51984 -94.01812 23623 ft 351 kts 269°
2026-05-07 21:40 29.52080 -94.04612 23081 ft 349 kts 269°
2026-05-07 21:41 29.52175 -94.07380 22581 ft 346 kts 269°
2026-05-07 21:41 29.52269 -94.10130 22103 ft 342 kts 269°
2026-05-07 21:41 29.52361 -94.12844 21641 ft 339 kts 269°
2026-05-07 21:41 29.52450 -94.15505 21194 ft 336 kts 269°
2026-05-07 21:42 29.52539 -94.18179 20746 ft 333 kts 269°
2026-05-07 21:42 29.52627 -94.20826 20308 ft 331 kts 268°
2026-05-07 21:42 29.52714 -94.23461 19867 ft 328 kts 268°
2026-05-07 21:42 29.52800 -94.26083 19422 ft 326 kts 268°
2026-05-07 21:43 29.52917 -94.28650 19005 ft 326 kts 273°
2026-05-07 21:43 29.53526 -94.31175 18583 ft 332 kts 287°
2026-05-07 21:43 29.54518 -94.33585 18109 ft 334 kts 290°
2026-05-07 21:43 29.55567 -94.35956 17645 ft 332 kts 291°
2026-05-07 21:44 29.56616 -94.38319 17186 ft 332 kts 291°
2026-05-07 21:44 29.57655 -94.40687 16754 ft 333 kts 291°
2026-05-07 21:44 29.58688 -94.43073 16309 ft 334 kts 291°
2026-05-07 21:44 29.59719 -94.45470 15871 ft 334 kts 291°
2026-05-07 21:45 29.60743 -94.47860 15433 ft 332 kts 291°
2026-05-07 21:45 29.61760 -94.50237 15012 ft 330 kts 292°
2026-05-07 21:45 29.62769 -94.52591 14693 ft 328 kts 292°
2026-05-07 21:45 29.63777 -94.54942 14377 ft 327 kts 292°
2026-05-07 21:46 29.64784 -94.57290 14064 ft 328 kts 292°
2026-05-07 21:46 29.65787 -94.59633 13742 ft 332 kts 293°
2026-05-07 21:46 29.66822 -94.62054 13394 ft 334 kts 293°
2026-05-07 21:46 29.67835 -94.64420 13067 ft 333 kts 294°
2026-05-07 21:47 29.68859 -94.66800 12735 ft 332 kts 294°
2026-05-07 21:47 29.69890 -94.69208 12411 ft 330 kts 294°
2026-05-07 21:47 29.70885 -94.71542 12101 ft 329 kts 294°
2026-05-07 21:47 29.71888 -94.73903 11824 ft 327 kts 294°
2026-05-07 21:48 29.72872 -94.76214 11781 ft 316 kts 294°
2026-05-07 21:48 29.73820 -94.78440 11695 ft 304 kts 294°
2026-05-07 21:48 29.74736 -94.80591 11613 ft 293 kts 294°
2026-05-07 21:48 29.75622 -94.82675 11414 ft 288 kts 294°
2026-05-07 21:49 29.76498 -94.84740 11091 ft 287 kts 294°
2026-05-07 21:49 29.77376 -94.86808 10766 ft 287 kts 294°
2026-05-07 21:49 29.78247 -94.88861 10458 ft 285 kts 294°
2026-05-07 21:49 29.79117 -94.90912 10135 ft 285 kts 294°
2026-05-07 21:50 29.79985 -94.92958 9840 ft 283 kts 294°
2026-05-07 21:50 29.80841 -94.94979 9594 ft 279 kts 294°
2026-05-07 21:50 29.81688 -94.96978 9252 ft 278 kts 295°
2026-05-07 21:50 29.82533 -94.98974 8933 ft 277 kts 295°
2026-05-07 21:51 29.83372 -95.00958 8544 ft 279 kts 295°
2026-05-07 21:51 29.84219 -95.02960 8176 ft 280 kts 295°
2026-05-07 21:51 29.85076 -95.04988 7814 ft 281 kts 295°
2026-05-07 21:51 29.85923 -95.06993 7559 ft 277 kts 296°
2026-05-07 21:52 29.86769 -95.08996 7181 ft 280 kts 296°
2026-05-07 21:52 29.87585 -95.11043 6828 ft 281 kts 289°
2026-05-07 21:52 29.88075 -95.13213 6552 ft 279 kts 282°
2026-05-07 21:52 29.88465 -95.15362 6484 ft 269 kts 282°
2026-05-07 21:53 29.88851 -95.17431 6417 ft 259 kts 283°
2026-05-07 21:53 29.89200 -95.19432 6332 ft 250 kts 276°
2026-05-07 21:53 29.89222 -95.21402 6269 ft 241 kts 269°
2026-05-07 21:53 29.89194 -95.23281 6143 ft 235 kts 270°
2026-05-07 21:54 29.89185 -95.25159 6084 ft 236 kts 270°
2026-05-07 21:54 29.89185 -95.27072 6058 ft 239 kts 270°
2026-05-07 21:54 29.89187 -95.28984 5992 ft 237 kts 270°
2026-05-07 21:54 29.89190 -95.30863 5857 ft 232 kts 270°
2026-05-07 21:55 29.89195 -95.32709 5522 ft 230 kts 270°
2026-05-07 21:55 29.89200 -95.34557 5145 ft 231 kts 269°
2026-05-07 21:55 29.89205 -95.36407 5046 ft 234 kts 269°
2026-05-07 21:55 29.89209 -95.38292 5007 ft 234 kts 269°
2026-05-07 21:56 29.89214 -95.40153 5011 ft 230 kts 269°
2026-05-07 21:56 29.89219 -95.41978 4881 ft 226 kts 269°
2026-05-07 21:56 29.89223 -95.43798 4500 ft 227 kts 269°
2026-05-07 21:56 29.89226 -95.45607 4110 ft 230 kts 270°
2026-05-07 21:57 29.89217 -95.47460 4046 ft 232 kts 268°
2026-05-07 21:57 29.89174 -95.49348 4015 ft 237 kts 268°
2026-05-07 21:57 29.89126 -95.51236 4013 ft 233 kts 268°
2026-05-07 21:57 29.89076 -95.53098 4009 ft 231 kts 267°
2026-05-07 21:58 29.89025 -95.54936 3987 ft 229 kts 268°
2026-05-07 21:58 29.88976 -95.56760 3989 ft 227 kts 267°
2026-05-07 21:58 29.89115 -95.58561 3848 ft 222 kts 291°
2026-05-07 21:58 29.89990 -95.59921 3757 ft 207 kts 327°
2026-05-07 21:59 29.91285 -95.60431 3582 ft 194 kts 355°
2026-05-07 21:59 29.92616 -95.60591 3265 ft 192 kts 355°
2026-05-07 21:59 29.93934 -95.60752 3050 ft 190 kts 356°
2026-05-07 21:59 29.95259 -95.60916 3036 ft 196 kts 358°
2026-05-07 22:00 29.96597 -95.60979 2995 ft 189 kts 14°
2026-05-07 22:00 29.97661 -95.60235 2999 ft 179 kts 56°
2026-05-07 22:00 29.98265 -95.58983 3022 ft 180 kts 64°
2026-05-07 22:00 29.98829 -95.57687 3016 ft 181 kts 64°
2026-05-07 22:01 29.99274 -95.56343 2995 ft 180 kts 85°
2026-05-07 22:01 29.99262 -95.54940 3009 ft 172 kts 88°
2026-05-07 22:01 29.99308 -95.53576 3008 ft 168 kts 88°
2026-05-07 22:01 29.99335 -95.52228 2872 ft 166 kts 90°
2026-05-07 22:02 29.99336 -95.50887 2665 ft 169 kts 89°
2026-05-07 22:02 29.99342 -95.49547 2465 ft 164 kts 90°
2026-05-07 22:02 29.99336 -95.48234 2270 ft 161 kts 89°
2026-05-07 22:02 29.99303 -95.46939 2089 ft 164 kts 92°
2026-05-07 22:03 29.99325 -95.45616 1810 ft 168 kts 79°
2026-05-07 22:03 29.99456 -95.44276 1551 ft 168 kts 89°
2026-05-07 22:03 29.99354 -95.42965 1335 ft 158 kts 88°
2026-05-07 22:03 29.99338 -95.41772 1140 ft 145 kts 87°
2026-05-07 22:04 29.99339 -95.40609 964 ft 145 kts 83°
2026-05-07 22:04 29.99340 -95.39460 779 ft 140 kts 84°
2026-05-07 22:04 29.99343 -95.38290 625 ft 151 kts 87°
2026-05-07 22:04 29.99343 -95.37104 428 ft 151 kts 88°
2026-05-07 22:05 29.99340 -95.35868 211 ft 151 kts 86°
2026-05-07 22:05 29.99339 -95.34700 99 ft 136 kts 87°
2026-05-07 22:05 29.99346 -95.33761 98 ft 89 kts 90°